Prospect Creek, Prospect Cree, AK

5:20 AM AKDT on July 29, 2016 (GMT -0800)
Bettles | | Change Station

Elev 643 ft 66.91 °N, 151.53 °W | Updated 27 minutes ago

Overcast
Overcast
53 °F
Feels Like 53 °F
N
4
Wind Variable Wind from Variable

Today
High -- | Low -- °F
--% Chance of Precip.
Yesterday
High -- | Low -- °F
Precip. -- in
Pressure 29.73 in
Visibility 7.0 miles
Clouds Overcast 900 ft
Dew Point 51 °F
Humidity 93%
Rainfall 0.09 in
Snow Depth Not available.
4:27 AM 11:46 PM
Waning Crescent, 22% visible
METAR PABT 291253Z VRB03KT 7SM OVC009 12/11 A2970 RMK AO2 RAB40E51 SLP065 P0000 T01170106
Pressure 29.73 in
Visibility 7.0 miles
Clouds Overcast 900 ft
Dew Point 51 °F
Humidity 93%
Rainfall 0.09 in
Snow Depth Not available.
4:27 AM 11:46 PM
Waning Crescent, 22% visible
METAR PABT 291253Z VRB03KT 7SM OVC009 12/11 A2970 RMK AO2 RAB40E51 SLP065 P0000 T01170106

10-Day Weather Forecast

Almanac

Astronomy

Jul. 29, 2016 Rise Set
Actual Time
Civil Twilight
Nautical Twilight
Astronomical Twilight
Moon
Length of Visible Light
Length of Day
Tomorrow will be .
, % of the Moon is Illuminated

Today's Extremes

State Highs State Lows

Community

WunderPhotos

Upload Photos

1,928,339 photos uploaded!

WunderBlog® & News

Nearby

Air Quality

  Air Quality AQ Index Pollutant
Not available.

Snow Depth

Station Depth Elevation

Earthquake Activity

City Distance Mag. Time & Date
Minimum magnitude displayed is 2.5.

Coastal Water Temperatures

Place Temperature

Stations

Nearby Weather Stations

Station Location Temp. Windchill Dew Point Humidity Wind Precip. Elev Updated Type
                   

Watches & Warnings

There are currently no watches in effect.